Location: Lugrin
(46.4033°N, 6.6674°E)
Time: 06:25:18
(UTC+00:00)

USA 116 - Pass Details

Date: 18 September 2020
Orbit: 405 x 834 km, 97.9° (Epoch: 18 November)

Event Time Altitude Azimuth Distance (km) Brightness Sun altitude
Rises 18:17:48 0° 15° (NNE) 2,430 7.0 -7.6°
Reaches altitude 10° 18:19:44 10° 18° (NNE) 1,594 6.0 -7.9°
Maximum altitude 18:23:07 72° 102° (ESE) 513 3.4 -8.5°
Drops below altitude 10° 18:26:52 10° 188° (S) 1,762 6.3 -9.1°
Sets 18:29:06 0° 190° (S) 2,716 7.2 -9.5°
